Weather in Vasylkivka

Ukraine / Dnipropetrovsk Region     48˚12′29″N   36˚01′46″E
temp.,
°C
wind,
m/s
gust,
m/s
humid.,
%
clouds,
%
prec.,
mm/h
press.,
hPa
HPBL,
m
1 december, tue
tue123:00+3˚e41084100 0.0 1024522
02:00+4˚ese61075100 0.0 1024682
05:00+2˚e5978100 0.0 1024632
08:00+2˚e6975100 0.0 1025765
11:00+2˚ese7971100 0.0 1025837
14:00+2˚ese71071100 0.0 1025924
17:00+2˚ese71073100 0.0 10251051
20:00+2˚e61077100 0.0 1026767
2 december, wed
wed223:00+2˚e71184100 0.1 1026638
02:00+1˚e5982100 0.1 1027649
05:00+1˚e5981100 0.1 1026601
08:00+1˚ese51080100 0.1 1027600
11:00+3˚ese5977100 0.0 1027653
14:00+3˚ese5974100 0.0 1026676
17:00+3˚ese61076100 0.0 1026642
20:00+2˚ese61081100 0.1 1026614
3 december, thu
thu323:00+3˚ese5981100 0.0 1026541
02:00+3˚ese5983100 0.1 1026488
05:00+3˚se5985100 0.0 1026430
08:00+4˚se5987100 0.0 1026442
11:00+5˚se5882100 0.0 1026486
14:00+5˚se5779100 0.0 1026458
17:00+4˚ese478287 0.0 1026392
20:00+4˚se478194 0.0 1026455
4 december, fri
fri423:00+3˚ese4682100 0.0 1026431
02:00+3˚ese4783100 0.0 1026411
05:00+3˚ese478492 0.0 1025457
08:00+3˚ese598295 0.0 1026523
11:00+4˚ese597899 0.0 1025601
14:00+5˚ese587598 0.0 1025615
17:00+4˚ese6117794 0.0 1025588
20:00+3˚ese5117894 0.0 1026583
5 december, sat
sat523:00+2˚ese5118623 0.0 1026462
02:00+1˚ese5118423 0.0 1026452
05:00ese511823 0.0 1026410
08:00−1˚ese511812 0.0 1027408
11:00+2˚ese610680 0.0 1027514
14:00+4˚ese610639 0.0 1027573
17:00+2˚ese5127516 0.0 1028483
20:00ese5127718 0.0 1029474